Current weather by "City, St" or "zip code"  
 

Current Conditions: Santa Monica, Santa Monica Municipal Airport, CA

Fair


74.0 F

Last Updated on Oct 31 2020, 11:51 am PDT
Humidity: 38%
Wind Speed: SW 4.6 mph
Barometer 30.03 in
Dewpoint: 46.9 F
Visibility: 10.00 mi
Precip: --
Heat Index: NA
Wind Chill: NA
Current conditions at:

Santa Monica, Santa Monica Municipal Airport, CA (KSMO)

Lat: 34.01583 Lon: 118.45139

Local Radar Image active severe weather and emergency alerts image image weather storm and storm spotter reports image weather observation monitoring service image
Local
Radar
Active
Alerts
Storm Reports Obs
Monitoring

Sign-up For Email & Text Message Weather Alert Notification Services



Advertise Here

Observation History for Santa Monica, Santa Monica Municipal Airport, CA


Time Wind
(mph)
Vis
(mi)
Weather Precip (in) Temperature (F) Relative
Humidity
Wind
Chill
(F)
Heat
Index
(F)
Pressure
Air Dwpt altimeter
(in)
sea level
(mb)
Rmks
11:51 am PDT SW 4.6 10.00 Fair -- 74.0 46.9 38% NA NA 30.03 1016.7
10:51 am PDT S 4.6 10.00 Fair -- 70.0 46.9 44% NA NA 30.04 1017.1
9:51 am PDT N 0.0 10.00 Fair -- 66.0 46.9 50% NA NA 30.04 1017.2
8:51 am PDT N 0.0 10.00 Fair -- 62.0 48.0 60% NA NA 30.03 1016.9
7:51 am PDT N 0.0 10.00 Fair -- 55.0 46.0 72% NA NA 30.01 1016.0
6:51 am PDT N 0.0 10.00 Fair -- 53.0 46.0 77% NA NA 30.00 1015.7
5:51 am PDT N 0.0 10.00 Fair -- 53.0 45.0 74% NA NA 29.99 1015.4
4:51 am PDT N 3.5 10.00 Fair -- 53.0 48.0 83% NA NA 29.99 1015.4
3:51 am PDT NE 3.5 10.00 Fair -- 55.0 48.9 80% NA NA 29.99 1015.5
2:51 am PDT N 0.0 10.00 Fair -- 55.0 50.0 83% NA NA 30.00 1015.7
1:51 am PDT N 0.0 10.00 Fair -- 56.0 52.0 87% NA NA 29.99 1015.6
12:51 am PDT NW 3.5 9.00 Fair -- 59.0 55.0 87% NA NA 29.99 1015.4
11:51 pm PDT E 3.5 8.00 Fair -- 58.0 55.0 90% NA NA 29.99 1015.4
10:51 pm PDT NE 3.5 8.00 Fair -- 59.0 55.0 87% NA NA 29.98 1015.2
9:51 pm PDT E 3.5 8.00 Fair -- 60.0 57.0 90% NA NA 29.97 1014.6
8:51 pm PDT N 0.0 10.00 Fair -- 61.0 57.0 87% NA NA 29.96 1014.4
7:51 pm PDT S 3.5 10.00 Fair -- 63.0 57.9 84% NA NA 29.95 1014.2
6:51 pm PDT S 3.5 10.00 Fair -- 64.0 57.0 78% NA NA 29.94 1013.6
5:51 pm PDT W 3.5 10.00 Fair -- 66.0 55.0 68% NA NA 29.93 1013.4
4:51 pm PDT SW 5.8 10.00 Fair -- 69.0 53.1 57% NA NA 29.93 1013.4
3:51 pm PDT SW 9.2 10.00 Fair -- 70.0 55.0 59% NA NA 29.93 1013.4
2:51 pm PDT SW 10.4 9.00 Fair -- 71.0 51.1 49% NA NA 29.94 1013.7
1:51 pm PDT SW 9.2 8.00 Fair -- 71.0 51.1 49% NA NA 29.96 1014.3
12:51 pm PDT W 8.1 9.00 Fair -- 73.0 44.1 35% NA NA 29.98 1015.0

Regional Weather Observation


Los Angeles, Whiteman Airport, CA (KWHP)

Clear
77.0 F

Burbank - Bob Hope Airport, CA (KBUR)

Fair
83.0 F

Los Angeles / USC Campus Downtown, CA (KCQT)

Fair
83.0 F

El Monte, CA (KEMT)

Fair
82.0 F

Sandberg, CA (KSDB)

Fair
74.0 F

Los Angeles, Los Angeles International Airport, CA (KLAX)

A Few Clouds
72.0 F